TimeEDT,TemperatureF,Dew PointF,Humidity,Sea Level PressureIn,VisibilityMPH,Wind Direction,Wind SpeedMPH,Gust SpeedMPH,PrecipitationIn,Events,Conditions,WindDirDegrees,DateUTC
12:54 AM,59.0,52.0,78,29.80,10.0,SW,8.1,-,N/A,,Clear,220,2012-06-03 04:54:00
1:54 AM,57.9,52.0,81,29.79,10.0,SW,11.5,-,N/A,,Clear,220,2012-06-03 05:54:00
2:54 AM,57.0,52.0,83,29.80,10.0,SW,9.2,-,N/A,,Clear,230,2012-06-03 06:54:00
3:54 AM,55.9,51.1,84,29.80,10.0,SW,8.1,-,N/A,,Clear,230,2012-06-03 07:54:00
4:54 AM,55.0,51.1,86,29.80,10.0,SW,6.9,-,N/A,,Clear,230,2012-06-03 08:54:00
5:54 AM,54.0,51.1,90,29.81,7.0,SW,6.9,-,N/A,,Clear,220,2012-06-03 09:54:00
6:54 AM,54.0,51.1,90,29.82,5.0,SW,6.9,-,N/A,,Clear,230,2012-06-03 10:54:00
7:54 AM,57.0,53.1,87,29.81,8.0,SW,6.9,-,N/A,,Clear,230,2012-06-03 11:54:00
8:54 AM,63.0,54.0,72,29.82,10.0,WSW,10.4,-,N/A,,Clear,250,2012-06-03 12:54:00
9:54 AM,69.1,52.0,54,29.82,10.0,West,9.2,-,N/A,,Clear,270,2012-06-03 13:54:00
10:54 AM,73.0,50.0,44,29.83,10.0,West,11.5,-,N/A,,Clear,270,2012-06-03 14:54:00
11:54 AM,75.0,46.9,37,29.84,10.0,NW,12.7,18.4,N/A,,Clear,310,2012-06-03 15:54:00
12:54 PM,75.9,43.0,31,29.83,10.0,West,15.0,24.2,N/A,,Clear,280,2012-06-03 16:54:00
1:54 PM,77.0,43.0,30,29.83,10.0,WNW,17.3,24.2,N/A,,Partly Cloudy,300,2012-06-03 17:54:00
2:54 PM,77.0,42.1,29,29.84,10.0,WNW,16.1,25.3,N/A,,Clear,300,2012-06-03 18:54:00
3:54 PM,77.0,42.1,29,29.83,10.0,WNW,16.1,25.3,N/A,,Clear,290,2012-06-03 19:54:00
4:54 PM,78.1,43.0,29,29.82,10.0,WNW,17.3,25.3,N/A,,Clear,300,2012-06-03 20:54:00
5:54 PM,78.1,43.0,29,29.81,10.0,WNW,10.4,-,N/A,,Clear,300,2012-06-03 21:54:00
6:54 PM,77.0,45.0,32,29.81,10.0,WNW,11.5,-,N/A,,Clear,290,2012-06-03 22:54:00
7:54 PM,75.0,46.0,36,29.82,10.0,WNW,5.8,-,N/A,,Clear,300,2012-06-03 23:54:00
8:54 PM,72.0,46.9,41,29.81,10.0,Calm,Calm,-,N/A,,Clear,0,2012-06-04 00:54:00
9:54 PM,66.0,51.1,59,29.82,10.0,Calm,Calm,-,0.00,,Clear,0,2012-06-04 01:54:00
10:54 PM,66.0,53.1,63,29.83,10.0,Calm,Calm,-,N/A,,Partly Cloudy,0,2012-06-04 02:54:00
11:54 PM,64.9,51.1,61,29.81,10.0,Calm,Calm,-,N/A,,Clear,0,2012-06-04 03:54:00